Regional Weather Roundup
Issued by NWS Newport/Morehead, NC

Current Version | Previous Version | Graphics & Text | Print | Product List | Glossary Off
Versions: 1 2 3 4 5 6 7 8 9 10 11 12 13 14 15 16 17 18 19 20 21 22 23 24 25 26 27 28 29 30 31 32 33 34 35 36 37 38 39 40 41 42 43 44 45 46 47 48 49 50

000
ASUS42 KMHX 232322
RWRMHX
WEATHER ROUNDUP FOR EASTERN NORTH CAROLINA
NATIONAL WEATHER SERVICE NEWPORT/MOREHEAD CITY NC
700 PM EDT WED JUL 23 2014

NOTE: "FAIR" INDICATES FEW OR NO CLOUDS BELOW 12,000 FEET
WITH NO SIGNIFICANT WEATHER AND/OR OBSTRUCTIONS TO VISIBILITY

NCZ015>017-031-032-045>047-102-103-240000-
NORTH COAST

CITY           SKY/WX    TMP DP  RH WIND       PRES   REMARKS
EDENTON        MOSUNNY   84  74  72 SW16      29.91R
ELIZABETH CITY SUNNY     86  74  67 S12       29.89F
KITTY HAWK     PTCLDY    83  75  78 S8        29.90S
MANTEO         NOT AVBL

$$

NCZ045>047-081-094-103-104-240000-
CENTRAL COAST

CITY           SKY/WX    TMP DP  RH WIND       PRES   REMARKS
FRISCO         PTSUNNY   82  77  84 SW13G21   29.94F
SWANQUARTER      N/A     82 N/A N/A SW13      29.88S

$$

NCZ095-097-098-100-101-240000-
SOUTHERN COAST

CITY           SKY/WX    TMP DP  RH WIND       PRES   REMARKS
BEAUFORT       MOSUNNY   81  75  82 SW16      29.96S
CEDAR ISLAND     N/A     82 N/A N/A S7G14     29.97F
JACKSONVILLE   MOSUNNY   82  75  79 S9        29.95S THUNDER
NEWPORT        NOT AVBL
PINEY ISLAND   PTCLDY    82  77  84 S15       29.94F
WILMINGTON     PTSUNNY   83  73  72 SW14      29.97S


$$

NCZ011>013-027>030-043-044-078>080-089-090>093-098-240000-
COASTAL PLAIN

CITY           SKY/WX    TMP DP  RH WIND       PRES   REMARKS
AHOSKIE        SUNNY     86  74  66 S7        29.90S
CLINTON        MOSUNNY   85  77  75 SW5       29.95F
ELIZABETHTOWN  MOSUNNY   84  74  72 S3        29.97R
GOLDSBORO      CLOUDY    84  77  78 SW9       29.92S
GREENVILLE     PTSUNNY   82  77  83 S9        29.95R
HAVELOCK       SUNNY     82  74  76 SW10      29.96S
KENANSVILLE    PTSUNNY   85  73  66 SW5       29.95F
KINSTON        CLOUDY    84  75  74 SW6       29.94S
NEW BERN       MOSUNNY   86  75  69 S9        29.95S
RICHLANDS      PTSUNNY   81  75  83 SW16      29.96S
ROANOKE RAPIDS NOT AVBL
ROCKY MOUNT    MOSUNNY   87  73  62 S9        29.92S
WASHINGTON     PTSUNNY   78  74  87 CALM      29.93S
WHITEVILLE     PTSUNNY   81  73  77 S6        29.97S

$$

AMZ130-135-150-152-154-156-158-170-250-252-270-ANZ085-086-088-633-658-670-240000-
MARINE OBSERVATIONS

STATION/POSITION TIME  TEMP    WIND        PRES    WAVE   SWELL
                       AIR SEA DIR/SP/G            HT/PER HT/PER
                 (UTC) (F)     (DEG/KT/KT) (MB)    (FT/S) (FT/S)
CHESAPEAKE LIGHT NOT AVBL
BUOY 44014       2300   79 79  200/ 16/ 17 1012.1    3/ 5   2/ 7
DUCK             2300   83 74  210/ 12/ 16 1011.6
2E DUCK          2300                        N/A     2/10
OREGON INLET     2300   81 84  200/ 16/ 19 1013.2
BUOY 44095       2300      78                N/A     3/ 7
20E OREGON INLET 2200          VRB 16/ 19    N/A
HATTERAS CG      2300   80 83  210/ 11/ 16 1014.4
DIAMOND BUOY     2300          VRB 21/ 25  1013.4    4/ 4   2/ 7
CAPE LOOKOUT     2300   80     220/ 12/ 15 1014.5
BEAUFORT LAB     2300   81 81  220/  8/ 14 1014.3
30 SE NEW RIVER  2300   81 81  220/ 17/ 19 1014.9    4/ 6   2/ 9
5 SE WRIGHTSVILL 2300   78 81  220/ 17/ 21   N/A
BUOY 41002       2249   82 82  220/ 16/ 19 1018.6    4/ 5   2/ 8
BUOY 41004       2300   82 83  200/ 12/ 12 1015.3    3/ 6   2/ 6

$$



USA.gov is the U.S. government's official web portal to all federal, state and local government web resources and services.